Regional Weather Roundup
Issued by NWS

Home | Current Version | Previous Version | Text Only | Print | Product List | Glossary Off
Versions: 1 2 3 4 5 6 7 8 9 10 11 12 13 14 15 16 17 18 19 20 21 22 23 24 25 26 27 28 29 30 31 32 33 34 35 36 37 38 39 40 41 42 43 44 45 46 47 48 49 50

000
ASUS43 KOAX 262010
RWRNE

WEATHER ROUNDUP FOR NEBRASKA
NATIONAL WEATHER SERVICE OMAHA NE
300 PM CDT THU MAR 26 2015

NOTES: SATELLITE DATA IS BEING USED TO AUGMENT CLOUD COVER ABOVE
       12000 FEET.
       "FAIR" INDICATES FEW OR NO CLOUDS BELOW 12,000 FEET WITH NO
       SIGNIFICANT WEATHER AND/OR OBSTRUCTIONS TO VISIBILITY.

  * THESE STATIONS DO NOT REPORT WEATHER SUCH AS RAIN...SNOW OR FOG.

NEZ001>004-019>022-054>056-262100-
NEBRASKA PANHANDLE

CITY           SKY/WX    TMP DP  RH WIND       PRES   REMARKS
SCOTTSBLUFF    CLOUDY    53  32  44 NW25G37   30.14S
ALLIANCE       CLOUDY    50  31  48 N25G33    30.10F
CHADRON        CLOUDY    54  29  38 NW16G30   30.09F
KIMBALL        CLOUDY    53  23  31 NW16G29   30.11F
SIDNEY         PTSUNNY   54  26  34 NW23G38   30.12F
$$

NEZ057>060-069>072-079>082-262100-
SOUTHWEST NEBRASKA

CITY           SKY/WX    TMP DP  RH WIND       PRES   REMARKS
NORTH PLATTE   CLOUDY    57  25  29 NW23G33   30.03F
IMPERIAL         N/A     59  27  29 NW26G38   30.07F
LEXINGTON      PTSUNNY   58  28  31 W16       30.01F
MCCOOK         CLOUDY    61  24  24 NW22G36   30.03F
OGALLALA       CLOUDY    58  27  30 NW29G36   30.07S
$$

NEZ005>010-023>029-035>040-094-262100-
NORTH CENTRAL NEBRASKA

CITY           SKY/WX    TMP DP  RH WIND       PRES   REMARKS
VALENTINE      PTSUNNY   47  32  56 NE16      30.07R
AINSWORTH      CLOUDY    50  28  43 NE15G23   30.04S
BROKEN BOW     CLOUDY    56  28  34 W6        30.00F
O`NEILL        LGT SNOW  33  33  99 NE13      30.12R WCI  24
ORD            CLOUDY    45  26  47 S7        30.05F
THEDFORD       CLOUDY    56  29  35 NW28G40   30.02F
$$

NEZ041-046>049-061>064-073>077-083>087-262100-
SOUTH CENTRAL NEBRASKA

CITY           SKY/WX    TMP DP  RH WIND       PRES   REMARKS
GRAND ISLAND   CLOUDY    47  27  45 SW8       30.07F
AURORA         CLOUDY    48  28  45 SW6       30.06F
HASTINGS       CLOUDY    50  27  40 S12       30.04F
HEBRON         CLOUDY    49  25  40 CALM      30.09F
HOLDREGE       PTSUNNY   57  30  36 SW13G23   30.02F
KEARNEY *      PTSUNNY   54  28  37 SW13G23   30.05F
YORK           CLOUDY    46  28  49 CALM      30.08F
$$

NEZ011>018-030>034-042>045-262100-
NORTHEAST NEBRASKA

CITY           SKY/WX    TMP DP  RH WIND       PRES   REMARKS
NORFOLK        LGT SNOW  34  32  92 N6        30.13R VSB 1   WCI  29
ALBION         LGT RAIN  42  28  56 NW7       30.10S
BLAIR          SUNNY     47  22  37 NW8       30.10F
COLUMBUS *     CLOUDY    41  27  56 E3        30.13F
FREMONT        PTSUNNY   49  22  34 NW8       30.12F
TEKAMAH        FAIR      48  21  34 N14G29    30.13F
WAYNE          CLOUDY    42  24  47 N8        30.13F
$$

NEZ050>053-065>068-078-088>093-262100-
SOUTHEAST NEBRASKA

CITY           SKY/WX    TMP DP  RH WIND       PRES   REMARKS
LINCOLN        MOSUNNY   51  25  36 VRB5      30.11F
OMAHA EPPLEY   PTSUNNY   49  24  37 N14       30.12F
BEATRICE       PTSUNNY   47  25  41 W6        30.11F
FALLS CITY     MOSUNNY   48  28  46 VRB5      30.12F
NEBRASKA CITY  MOSUNNY   47  22  36 W3        30.11F
PLATTSMOUTH    SUNNY     48  19  31 NW8       30.11F
$$

NEZ044-045-051>053-067-262100-
OMAHA AREA

CITY           SKY/WX    TMP DP  RH WIND       PRES   REMARKS
OMAHA EPPLEY   PTSUNNY   49  24  37 N14       30.12F
BLAIR          SUNNY     47  22  37 NW8       30.10F
FREMONT        PTSUNNY   49  22  34 NW8       30.12F
MILLARD        SUNNY     47  26  43 CALM      30.12F
OFFUTT AFB     SUNNY     48  21  34 NW8       30.11F
PLATTSMOUTH    SUNNY     48  19  31 NW8       30.11F
WAHOO          FAIR      48  21  33 NW7       30.11F
$$


USA.gov is the U.S. government's official web portal to all federal, state and local government web resources and services.